EA3E-1 Weather Reports


time (UTC)temp
F
wind
direction
speed
knots
gust
knots
rain 1hr
in
rain 24hr
in
rain mn
in
humidity
%
barometer
mb
20260506153729 56 1 8.7 20.0 0.94 0.98 0.94 65 1010.9
20260506152829 55 1 10.4 18.2 0.89 0.93 0.90 67 1010.9
20260506151929 55 1 9.6 22.6 0.68 0.73 0.70 73 1011.3
20260506151029 56 1 7.8 22.6 0.16 0.27 0.20 77 1010.6
20260506144329 62 1 5.2 11.3 0.00 0.34 0.00 72 1010.2
20260506143429 62 1 5.2 11.3 0.00 0.35 0.00 71 1010.2
20260506141629 63 1 5.2 10.4 0.00 0.39 0.00 70 1010.4
20260506140729 63 1 4.3 13.0 0.00 0.39 0.00 68 1010.7
20260506135829 64 1 5.2 14.8 0.00 0.39 0.00 68 1010.6
20260506134929 64 1 4.3 13.0 0.00 0.39 0.00 68 1010.9
20260506134029 64 1 4.3 10.4 0.00 0.39 0.00 68 1011.0
20260506133129 64 1 4.3 11.3 0.00 0.39 0.00 68 1011.1
20260506131329 64 1 5.2 11.3 0.00 0.39 0.00 68 1011.2
20260506130429 64 1 5.2 12.2 0.00 0.39 0.00 67 1011.3
20260506125529 64 1 5.2 11.3 0.00 0.39 0.00 68 1011.3
20260506124629 64 1 4.3 9.6 0.00 0.39 0.00 67 1011.3
20260506121929 62 1 4.3 13.0 0.00 0.43 0.00 71 1011.5
20260506121029 62 1 3.5 11.3 0.00 0.43 0.00 71 1011.6
20260506120128 62 1 4.3 10.4 0.00 0.43 0.00 72 1011.6
20260506115229 62 1 5.2 10.4 0.00 0.43 0.00 71 1011.6
20260506114328 62 1 5.2 13.0 0.00 0.43 0.00 68 1011.6
20260506113428 64 1 4.3 9.6 0.00 0.43 0.00 67 1011.6
20260506112528 64 1 4.3 9.6 0.00 0.43 0.00 66 1011.5
20260506111628 64 1 3.5 8.7 0.00 0.43 0.00 67 1011.7
20260506110728 64 1 3.5 8.7 0.00 0.43 0.00 68 1011.8
20260506105828 63 1 4.3 10.4 0.00 0.43 0.00 69 1011.7
20260506104928 63 1 3.5 9.6 0.00 0.43 0.00 69 1011.8
20260506103128 64 1 2.6 8.7 0.00 0.43 0.00 62 1011.9
20260506102228 64 1 3.5 6.1 0.00 0.43 0.00 64 1011.9
20260506101328 63 1 2.6 8.7 0.00 0.43 0.00 65 1012.0
20260506100428 63 1 4.3 7.0 0.00 0.43 0.00 64 1012.1
20260506095528 63 1 4.3 8.7 0.00 0.43 0.00 65 1012.2
20260506091928 63 1 1.7 4.3 0.00 0.43 0.00 70 1012.1
20260506091028 62 1 2.6 7.8 0.00 0.43 0.00 70 1012.1
20260506090128 61 1 2.6 5.2 0.00 0.43 0.00 72 1012.0
20260506085228 61 1 1.7 6.1 0.00 0.43 0.00 73 1012.0
20260506084328 61 1 1.7 4.3 0.00 0.43 0.00 73 1011.9
20260506083428 60 1 1.7 5.2 0.00 0.43 0.00 73 1011.8
20260506082528 60 1 1.7 4.3 0.00 0.43 0.00 73 1011.8
20260506081628 60 1 1.7 4.3 0.00 0.43 0.00 74 1011.7
20260506080728 59 1 1.7 3.5 0.00 0.43 0.00 75 1011.7
20260506073128 57 1 1.7 3.5 0.00 0.43 0.00 78 1011.7
20260506072228 56 1 2.6 4.3 0.00 0.43 0.00 77 1011.6
20260506071328 56 1 2.6 5.2 0.00 0.43 0.00 77 1011.7
20260506070428 56 1 1.7 5.2 0.00 0.43 0.00 77 1011.7
20260506061028 54 1 0.9 1.7 0.00 0.43 0.00 73 1011.4
20260506060128 53 1 0.9 1.7 0.00 0.43 0.00 73 1011.4
20260506050727 53 1 0.0 2.6 0.00 0.43 0.00 76 1010.8
20260506044927 53 1 0.0 1.7 0.00 0.43 0.00 77 1010.6
20260506044027 53 1 0.9 1.7 0.00 0.43 0.00 78 1010.5
20260506043127 53 1 0.9 1.7 0.00 0.43 0.00 78 1010.5
20260506040427 53 1 0.9 1.7 0.00 0.43 0.00 78 1010.3
20260506033727 55 1 1.7 2.6 0.00 0.43 0.00 77 1010.3
20260506032827 55 1 1.7 3.5 0.00 0.43 0.00 76 1010.3
20260506031927 55 1 1.7 4.3 0.00 0.43 0.00 76 1010.2
20260506031027 55 1 1.7 2.6 0.00 0.43 0.00 77 1010.2
20260506030127 55 1 2.6 3.5 0.00 0.43 0.00 77 1010.2
20260506025227 54 1 3.5 5.2 0.00 0.43 0.00 78 1010.2
20260506024327 54 1 3.5 6.1 0.00 0.43 0.00 78 1010.2
20260506023427 54 1 3.5 6.1 0.00 0.43 0.00 78 1010.1
20260506022527 54 1 3.5 6.1 0.00 0.43 0.00 78 1010.1
20260506021627 54 1 4.3 7.0 0.00 0.43 0.00 78 1010.1
20260506015827 54 1 4.3 8.7 0.00 0.43 0.00 78 1010.0
20260506014927 53 1 4.3 7.0 0.00 0.43 0.00 77 1010.1
20260506014027 53 1 3.5 7.0 0.00 0.43 0.00 77 1010.1
20260506013127 54 1 3.5 5.2 0.00 0.43 0.00 77 1010.1
20260506012227 54 1 2.6 6.1 0.00 0.43 0.00 77 1010.2
20260506011327 54 1 2.6 6.1 0.00 0.43 0.00 77 1010.1
20260506010427 54 1 2.6 7.0 0.00 0.43 0.00 77 1010.1
20260506005527 54 1 1.7 4.3 0.00 0.43 0.00 77 1010.2
20260506004627 55 1 2.6 3.5 0.00 0.43 0.00 78 1010.4
20260506003727 55 1 2.6 3.5 0.00 0.43 0.00 78 1010.4
20260506002827 55 1 3.5 6.1 0.00 0.43 0.00 77 1010.5
20260506001927 56 1 3.5 6.1 0.00 0.43 0.00 77 1010.4
20260506001027 56 1 3.5 5.2 0.00 0.43 0.00 74 1010.4
20260505234327 56 1 2.6 4.3 0.00 0.43 0.00 73 1010.7
20260505233426 56 1 2.6 6.1 0.00 0.43 0.00 73 1010.8
20260505232527 56 1 2.6 6.1 0.00 0.43 0.00 74 1011.0
20260505231627 55 1 2.6 7.0 0.00 0.43 0.00 75 1011.0
20260505230727 54 1 2.6 7.8 0.00 0.43 0.00 76 1011.0
20260505225826 54 1 3.5 7.0 0.00 0.43 0.00 76 1010.8
20260505224027 54 1 3.5 8.7 0.00 0.43 0.00 77 1010.9
20260505223126 54 1 2.6 7.0 0.00 0.43 0.00 77 1011.0
20260505222226 54 1 3.5 6.1 0.00 0.43 0.00 77 1011.1
20260505221326 54 1 3.5 7.8 0.00 0.44 0.00 77 1011.1
20260505220426 54 1 4.3 10.4 0.00 0.51 0.00 76 1011.2
20260505215526 55 1 4.3 8.7 0.00 0.51 0.51 76 1011.3
20260505214626 55 1 4.3 11.3 0.00 0.52 0.51 76 1011.4
20260505211926 55 1 4.3 9.6 0.00 0.52 0.51 76 1011.5
20260505211026 55 1 6.1 10.4 0.00 0.52 0.51 77 1011.6
20260505210126 55 1 6.1 13.9 0.00 0.52 0.51 77 1011.4
20260505205226 54 1 6.1 10.4 0.00 0.52 0.51 78 1011.0
20260505204326 54 1 6.1 10.4 0.00 0.52 0.51 77 1010.9
20260505202526 54 1 7.0 10.4 0.00 0.52 0.51 76 1011.0
20260505201626 54 1 7.8 13.9 0.00 0.52 0.51 75 1010.9
20260505195826 54 1 7.8 14.8 0.03 0.52 0.51 70 1010.9
20260505194026 54 1 7.0 13.0 0.03 0.52 0.51 69 1010.6
20260505193126 54 1 7.8 12.2 0.04 0.52 0.51 72 1010.7
20260505192226 54 1 7.8 13.0 0.04 0.52 0.51 73 1010.7
20260505191326 54 1 6.1 13.9 0.03 0.51 0.51 75 1010.9
20260505190426 54 1 5.2 13.0 0.01 0.49 0.48 76 1010.7
20260505185526 54 1 7.8 12.2 0.01 0.49 0.48 76 1010.7
20260505184626 55 1 8.7 16.5 0.01 0.49 0.48 77 1010.6
20260505183726 56 1 5.2 16.5 0.01 0.49 0.48 77 1010.3
20260505182826 61 1 1.7 6.1 0.00 0.48 0.47 69 1009.8
20260505181926 61 1 2.6 5.2 0.00 0.48 0.47 70 1009.5
20260505181026 61 1 1.7 6.1 0.00 0.48 0.47 70 1009.6
20260505180126 61 1 1.7 4.3 0.00 0.48 0.47 70 1009.6
20260505175226 61 1 2.6 6.1 0.00 0.48 0.47 70 1009.6
20260505174326 61 1 1.7 5.2 0.00 0.48 0.47 71 1009.5
20260505173426 61 1 1.7 5.2 0.00 0.48 0.47 70 1009.5
20260505172526 61 1 2.6 5.2 0.00 0.48 0.47 70 1009.4
20260505171626 61 1 2.6 7.8 0.00 0.48 0.47 70 1009.4
20260505170726 61 1 2.6 6.1 0.00 0.48 0.47 70 1009.5
20260505165825 61 1 2.6 6.1 0.00 0.48 0.47 69 1009.5
20260505164026 61 1 2.6 7.0 0.00 0.48 0.47 67 1009.6
20260505163126 61 1 1.7 7.0 0.00 0.49 0.47 67 1009.8
20260505162225 61 1 2.6 7.0 0.00 0.49 0.47 66 1009.8
20260505161326 61 1 2.6 6.1 0.06 0.50 0.47 64 1009.8
20260505160426 61 1 2.6 7.0 0.15 0.54 0.47 65 1009.9